Buffalo, NY

11:19 AM EST on December 16, 2017 (GMT -0500)
Buffalo Niagara International

Weather History for KBUF - June, 2013

Change the Weather History Date:

Tuesday, June 25, 2013

  Actual Average Record
Temperature  
Mean Temperature 73 °F 69 °F  
Max Temperature 76 °F 78 °F 96 °F (1988)
Min Temperature 69 °F 60 °F 43 °F (1979)
Degree Days  
Heating Degree Days 0 1  
Month to date heating degree days 64 60  
Since 1 June heating degree days 64 60  
Since 1 July heating degree days 6096 6613  
Cooling Degree Days 8 5  
Month to date cooling degree days 68 77  
Year to date cooling degree days 139 103  
Since 1 June cooling degree days 68 77  
Growing Degree Days 22 (Base 50)    
Moisture  
Dew Point 65 °F    
Average Humidity 76    
Maximum Humidity 84    
Minimum Humidity 68    
Precipitation  
Precipitation 0.10 in 0.12 in 1.82 in (1968)
Month to date precipitation 5.99 3.12  
Year to date precipitation 20.09 18.13  
Snow  
Snow 0.00 in 0.00 in 0.00 in ()
Month to date snowfall 0.0 0.0  
Since 1 June snowfall 0.0 0.0  
Since 1 July snowfall 58.8 94.7  
Snow Depth 0.00 in    
Sea Level Pressure  
Sea Level Pressure 29.88 in    
Wind  
Wind Speed 13 mph (SW)    
Max Wind Speed 28 mph    
Max Gust Speed 37 mph    
Visibility 9 miles    
Events Rain    
T = Trace of Precipitation, MM = Missing Value Source: NWS Daily Summary

Daily Weather History Graph

Daily Weather History Graph

Search for Another Location

Airport or City:

Trip Planner

Search our weather history database for the weather conditions in past years. The results will help you decide how hot, cold, wet, or windy it might be!

Date:

Astronomy

Jun. 25, 2013 Rise Set
Actual Time 5:37 AM EDT 8:57 PM EDT
Civil Twilight 5:01 AM EDT 9:33 PM EDT
Nautical Twilight 4:16 AM EDT 10:19 PM EDT
Astronomical Twilight 3:19 AM EDT 11:15 PM EDT
Moon 10:36 PM EDT (6/25) 8:19 AM EDT (6/25)
Length of Visible Light 16h 31m
Length of Day
15h 20m
Waning Gibbous, 93% of the Moon is Illuminated
Jun 25
Waning Gibbous
Jun 30
Last Quarter
Jul 8
New
Jul 15
First Quarter
Jul 22
Full

Hourly Weather History & Observations

Time (EDT) Temp. Dew Point Humidity Pressure Visibility Wind Dir Wind Speed Gust Speed Precip Events Conditions
12:54 AM 73.0 °F 63.0 °F 71% 29.95 in 10.0 mi SSW 4.6 mph - N/A   Scattered Clouds
1:54 AM 73.0 °F 64.0 °F 73% 29.94 in 10.0 mi SSW 4.6 mph - N/A   Scattered Clouds
2:54 AM 73.0 °F 64.0 °F 73% 29.91 in 10.0 mi SSW 6.9 mph - N/A   Scattered Clouds
3:54 AM 72.0 °F 64.9 °F 78% 29.90 in 10.0 mi South 8.1 mph - N/A   Scattered Clouds
4:54 AM 73.0 °F 64.9 °F 76% 29.89 in 10.0 mi SSW 6.9 mph - N/A   Scattered Clouds
5:54 AM 75.0 °F 66.0 °F 73% 29.90 in 10.0 mi SW 5.8 mph - N/A   Mostly Cloudy
6:54 AM 75.0 °F 66.0 °F 73% 29.90 in 10.0 mi SW 9.2 mph - N/A   Mostly Cloudy
7:54 AM 75.9 °F 66.0 °F 71% 29.90 in 10.0 mi SW 10.4 mph - N/A   Mostly Cloudy
8:43 AM 71.6 °F 66.2 °F 83% 29.92 in 1.8 mi SW 19.6 mph 34.5 mph 0.00 in Rain Light Rain
8:46 AM 69.8 °F 66.2 °F 88% 29.92 in 2.0 mi SW 18.4 mph 34.5 mph 0.02 in Rain Heavy Rain
8:48 AM 69.8 °F 66.2 °F 88% 29.92 in 3.0 mi SW 15.0 mph 31.1 mph 0.07 in Rain Heavy Rain
8:54 AM 70.0 °F 66.9 °F 90% 29.91 in 3.0 mi SW 16.1 mph 25.3 mph 0.09 in Rain Rain
9:54 AM 73.0 °F 64.9 °F 76% 29.91 in 10.0 mi SW 17.3 mph 29.9 mph 0.01 in   Mostly Cloudy
10:54 AM 73.0 °F 66.0 °F 79% 29.91 in 10.0 mi WSW 17.3 mph 27.6 mph N/A   Mostly Cloudy
11:54 AM 73.0 °F 66.0 °F 79% 29.90 in 10.0 mi WSW 17.3 mph 26.5 mph N/A   Overcast
12:54 PM 75.0 °F 66.9 °F 76% 29.88 in 10.0 mi SW 13.8 mph - N/A   Overcast
1:54 PM 73.9 °F 66.0 °F 76% 29.89 in 10.0 mi WSW 24.2 mph 28.8 mph N/A   Overcast
2:54 PM 73.9 °F 66.9 °F 79% 29.89 in 10.0 mi WSW 18.4 mph 28.8 mph 0.00 in   Overcast
3:54 PM 75.0 °F 66.0 °F 73% 29.88 in 10.0 mi WSW 23.0 mph 36.8 mph N/A   Mostly Cloudy
4:54 PM 73.9 °F 64.9 °F 73% 29.85 in 10.0 mi WSW 18.4 mph 26.5 mph N/A   Mostly Cloudy
5:54 PM 75.9 °F 64.0 °F 67% 29.81 in 10.0 mi SW 19.6 mph 27.6 mph N/A   Mostly Cloudy
6:54 PM 73.9 °F 64.9 °F 73% 29.81 in 10.0 mi SW 12.7 mph - N/A   Mostly Cloudy
7:54 PM 73.9 °F 62.1 °F 66% 29.82 in 10.0 mi WSW 10.4 mph - N/A   Overcast
8:54 PM 72.0 °F 63.0 °F 73% 29.82 in 10.0 mi SW 10.4 mph - N/A   Overcast
9:54 PM 71.1 °F 64.9 °F 81% 29.83 in 10.0 mi SW 11.5 mph 19.6 mph N/A   Overcast
10:54 PM 70.0 °F 64.9 °F 84% 29.85 in 10.0 mi SW 12.7 mph 20.7 mph N/A   Overcast
11:54 PM 70.0 °F 64.9 °F 84% 29.83 in 10.0 mi WSW 10.4 mph - N/A   Overcast